Regional Weather Roundup
Issued by NWS

Home | Current Version | Previous Version | Text Only | Print | Product List | Glossary Off
Versions: 1 2 3 4 5 6 7 8 9 10 11 12 13 14 15 16 17 18 19 20 21 22 23 24 25 26 27

000
ASUS45 KBOU 301107
RWRCO

WEATHER ROUNDUP FOR COLORADO
NATIONAL WEATHER SERVICE DENVER/BOULDER CO
500 AM MDT SAT JUL 30 2016

NOTE: "FAIR" INDICATES FEW OR NO CLOUDS BELOW 12000 FEET WITH NO
SIGNIFICANT WEATHER AND/OR OBSTRUCTIONS TO VISIBILITY.

COZ001>005-013-030-031-301200-
...NORTHWEST COLORADO...

CITY           SKY/WX    TMP DP  RH WIND       PRES   REMARKS
CRAIG          FAIR      45  37  73 CALM      30.13S
HAYDEN         FAIR      55  36  47 E9        30.14S
MEEKER         FAIR      54  39  57 E5        30.15S
MOUNT WERNER   NOT AVBL
STEAMBOAT SPGS FAIR      48  37  66 CALM      30.17S
WALDEN         FAIR      41  32  70 SE5       30.25F
$$

COZ006>008-011-301200-
...WEST CENTRAL VALLEYS...

CITY           SKY/WX    TMP DP  RH WIND       PRES   REMARKS
GRAND JUNCTION FAIR      69  39  33 SE5       29.99R
MONTROSE       FAIR      67  41  38 SE7       30.09F
EAGLE          FAIR      55  36  47 E6        30.20S
RIFLE          FAIR      58  37  45 CALM      30.08S
DELTA          NOT AVBL
NUCLA          NOT AVBL
$$

COZ017>023-064>068-301200-
...SOUTHWEST COLORADO...

CITY           SKY/WX    TMP DP  RH WIND       PRES   REMARKS
DURANGO        FAIR      60  43  53 NE10      30.21F
CORTEZ         FAIR      62  46  55 CALM      30.13R
PAGOSA SPRINGS FAIR      55  40  58 CALM      30.30F
TELLURIDE      MOCLDY    63  34  34 CALM      30.40S
WOLF CREEK PAS FAIR      46  36  66 SW16      30.62F
$$

COZ009-010-012-014-032>034-037-058>063-301200-
...CENTRAL COLORADO...

CITY           SKY/WX    TMP DP  RH WIND       PRES   REMARKS
ASPEN          FAIR      52  37  56 SW8       30.24F
BUENA VISTA    FAIR      52  44  72 W7        30.32S
COPPER MTN     FAIR      54  25  32 W14       30.58F
BERTHOUD PASS  FAIR      45  32  61 NW20G25   30.58F
COTTONWOOD PAS FAIR      55  46  71 W7        30.43F
GUNNISON       FAIR      52  36  54 N7        30.31S
KREMMLING      FAIR      43  36  75 CALM      30.25S
LEADVILLE      CLOUDY    50  44  80 CALM      30.43S
MONARCH PASS   FAIR      50  34  53 MISG      30.69S
SALIDA         FAIR      58  52  81 CALM      30.35F
SUNLIGHT       FAIR      61  32  33 MISG      30.51S
WILKERSON PASS MOCLDY    46  45  93 W9        30.55S FOG
$$

COZ069>075-301200-
...SAN LUIS VALLEY/SANGRE DE CRISTO MOUNTAINS...

CITY           SKY/WX    TMP DP  RH WIND       PRES   REMARKS
ALAMOSA        FAIR      52  42  69 SE6       30.27S
LA VETA PASS   FAIR      52  37  58 S13G24    30.44F
SAGUACHE       FAIR      52  37  58 N8        30.31S
$$

COZ035-036-038>040-301200-
...NORTHERN COLORADO FRONT RANGE...

CITY           SKY/WX    TMP DP  RH WIND       PRES   REMARKS
DENVER INTL AP FAIR      66  57  72 S25G31    30.06F
DMNS CITY PARK   N/A     62  59  91 W1        30.06F
AURORA         PTCLDY    65  58  78 S18       30.08F
FRONT RANGE AP NOT AVBL
ERIE MUNI ARPT FAIR      59  57  93 CALM      30.06F
BOULDER MUN AP FAIR      61  59  94 CALM      30.06F
CENTENNIAL     FAIR      64  57  78 S17       30.10F
BROOMFIELD     FAIR      59  57  94 W3        30.09F
LONGMONT       NOT AVBL
$$

COZ041-046-047-076>085-087-088-301200-
...PIKES PEAK/PALMER DIVIDE AND SOUTHERN FOOTHILLS...

CITY           SKY/WX    TMP DP  RH WIND       PRES   REMARKS
COLO. SPRINGS  FAIR      61  57  87 SE7       30.20F
A. F. ACADEMY  CLOUDY    60  60  99 SE9       30.20F
SCHRIEVER AFB  NOT AVBL
ELLICOTT       NOT AVBL
FALCON         NOT AVBL
FORT CARSON    CLOUDY    63  59  88 E8        30.17F
LIMON          MOCLDY    61  60  97 S9        30.12R
MONUMENT HILL  CLOUDY    55  54  94 S17G25    30.22F
TRINIDAD       NOT AVBL
$$

COZ042>045-048>051-090-091-301200-
...NORTHEAST COLORADO...

CITY           SKY/WX    TMP DP  RH WIND       PRES   REMARKS
GREELEY ARPT   FAIR      64  61  88 SE5       30.05F
AKRON          FAIR      63  57  81 S6        30.06F
BURLINGTON     FAIR      66  58  75 S8        30.04F
WRAY           NOT AVBL
STERLING       NOT AVBL
HOLYOKE        NOT AVBL
FORT MORGAN    NOT AVBL
$$

COZ086-089-092>099-301200-
...SOUTHEAST COLORADO...

CITY           SKY/WX    TMP DP  RH WIND       PRES   REMARKS
PUEBLO         FAIR      66  60  81 E7        30.10S
LA JUNTA       FAIR      66  59  78 E7        30.09R
LAMAR          FAIR      66  63  90 SE9       30.05F
SPRINGFIELD      N/A     58  54  86 S5        30.11S
$$




USA.gov is the U.S. government's official web portal to all federal, state and local government web resources and services.